User: anonymous   Login
Location: Argonnex
(45.9500°N, 6.1333°E)
Time: 14:41:16
(UTC+00:00)
Language:

FENGYUN 1C DEB - Orbit

View from above orbital plane
View from above orbital plane
View from above satellite
View from above satellite

Ground track
Ground track

The orbit data is extracted from the following two-line orbital elements,

1 29754U 99025AU  24053.82900512  .00001649  00000-0  87589-3 0  9993
2 29754  98.8738 151.6301 0037290 319.7154 163.6881 14.14576240880227
Epoch (UTC): 22 February 2024 19:53:46
Eccentricity: 0.0037290
inclination: 98.8738°
perigee height: 817 km
apogee height: 870 km
right ascension of ascending node: 151.6301°
argument of perigee: 319.7154°
revolutions per day: 14.14576240
mean anomaly at epoch: 163.6881°
orbit number at epoch: 88022

The dashed part of the orbit path shows where the satellite is in the earth's shadow,  

DLR